Location: Blanton
(30.8302°N, 83.1188°W)
Time: 22:09:37
(UTC+00:00)

X-37B - Pass Details

Date: 07 December 2021
Orbit: 334 x 337 km, 45.0° (Epoch: 11 January)

Event Time Altitude Azimuth Distance (km) Brightness Sun altitude
Rises 23:16:22 0° 263° (W) 2,094 6.1 -9.8°
Reaches altitude 10° 23:18:41 10° 282° (WNW) 1,260 4.1 -10.3°
Maximum altitude 23:20:52 20° 333° (NNW) 849 2.4 -10.7°
Enters shadow 23:22:58 11° 22° (NNE) 1,236 2.7 -11.2°
